Location: Unspecified
(0.0000°N, 0.0000°E)
Time: 19:16:13
(UTC+00:00)

Transit 2A - Pass Details

Date: 18 May 2025
Orbit: 599 x 947 km, 66.7° (Epoch: 12 June)

Event Time Altitude Azimuth Distance (km) Brightness Sun altitude
Rises 18:41:39 0° 308° (NW) 3,132 10.8 -10.6°
Reaches altitude 10° 18:44:39 10° 289° (WNW) 2,282 10.1 -11.3°
Maximum altitude 18:48:07 18° 247° (WSW) 1,873 8.7 -12.1°
Drops below altitude 10° 18:51:49 10° 206° (SSW) 2,445 8.7 -13.0°
Sets 18:55:11 0° 188° (S) 3,450 9.3 -13.8°
